Location: Bergnerzell
(49.1816°N, 10.2565°E)
Time: 04:20:44
(UTC+00:00)

IDEFIX/ARIANE 42P - Pass Details

Date: 19 August 2024
Orbit: 782 x 799 km, 98.5° (Epoch: 08 September)

Event Time Altitude Azimuth Distance (km) Brightness Sun altitude
Rises 01:34:49 0° 11° (NNE) 3,287 6.9 -21.6°
Reaches altitude 10° 01:37:09 10° 9° (N) 2,356 5.9 -21.4°
Maximum altitude 01:42:16 62° 290° (WNW) 887 2.7 -20.9°
Enters shadow 01:43:46 43° 232° (SW) 1,091 2.8 -20.8°
